Zurück zum Katalog

STARLINK-6334

AktivKommunikationVLEO
NORAD 57238·PAYLOAD·🇺🇸 United States

Gestartet Jul 7, 2023 von Vandenberg Space Force Base

Loading…

Nächste Überflüge (nächste 24 Stunden)

TLE

AktuellSource: CelesTrak SupGP

Epoche: Sep 15, 2026, 01:37 UTC

1 57238C 23094W   26258.06784722 -.00069915  00000+0 -25320-2 0  2585
2 57238  43.0049  30.6332 0001995 270.5904 316.7165 15.27616293    17

Verfolge STARLINK-6334 in Echtzeit mit AllMySat

Download on the App Store